Time,TemperatureF,DewpointF,PressureIn,WindDirection,WindDirectionDegrees,WindSpeedMPH,WindSpeedGustMPH,Humidity,HourlyPrecipIn,Conditions,Clouds,dailyrainin,SoftwareType,DateUTC
2013-03-20 00:00:00,10.2,-2.0,30.24,NW,309,2.0,13.0,59,0.00,,,0.00,weatherlink.com 1.10,2013-03-20 05:00:00,
2013-03-20 00:15:00,10.0,-2.0,30.24,West,274,7.0,14.0,60,0.00,,,0.00,weatherlink.com 1.10,2013-03-20 05:15:00,
2013-03-20 00:30:00,9.9,-1.0,30.24,NW,308,2.0,10.0,61,0.00,,,0.00,weatherlink.com 1.10,2013-03-20 05:30:00,
2013-03-20 00:45:00,9.7,-1.0,30.25,West,265,3.0,13.0,62,0.00,,,0.00,weatherlink.com 1.10,2013-03-20 05:45:00,
2013-03-20 01:00:00,9.5,-1.0,30.24,North,349,3.0,12.0,63,0.00,,,0.00,weatherlink.com 1.10,2013-03-20 06:00:00,
2013-03-20 01:15:00,9.2,-1.0,30.24,NW,316,1.0,9.0,63,0.00,,,0.00,weatherlink.com 1.10,2013-03-20 06:15:00,
2013-03-20 01:30:00,9.0,-1.0,30.25,WSW,246,2.0,9.0,64,0.00,,,0.00,weatherlink.com 1.10,2013-03-20 06:30:00,
2013-03-20 01:46:00,8.9,-1.0,30.25,SW,226,7.0,12.0,64,0.00,,,0.00,weatherlink.com 1.10,2013-03-20 06:46:00,
2013-03-20 02:01:00,8.6,-1.0,30.25,WNW,285,4.0,11.0,65,0.00,,,0.00,weatherlink.com 1.10,2013-03-20 07:01:00,
2013-03-20 02:16:00,8.5,-1.0,30.25,SW,228,1.0,12.0,65,0.00,,,0.00,weatherlink.com 1.10,2013-03-20 07:16:00,
2013-03-20 02:31:00,8.3,-1.0,30.25,WNW,289,3.0,11.0,66,0.00,,,0.00,weatherlink.com 1.10,2013-03-20 07:31:00,
2013-03-20 02:46:00,8.0,-1.0,30.25,WSW,252,3.0,10.0,66,0.00,,,0.00,weatherlink.com 1.10,2013-03-20 07:46:00,
2013-03-20 03:01:00,7.9,-1.0,30.24,West,269,3.0,11.0,66,0.00,,,0.00,weatherlink.com 1.10,2013-03-20 08:01:00,
2013-03-20 03:16:00,7.8,-1.0,30.24,West,273,2.0,9.0,67,0.00,,,0.00,weatherlink.com 1.10,2013-03-20 08:16:00,
2013-03-20 03:31:00,7.8,-1.0,30.24,West,265,2.0,11.0,67,0.00,,,0.00,weatherlink.com 1.10,2013-03-20 08:31:00,
2013-03-20 03:46:00,7.6,-1.0,30.24,WNW,282,3.0,8.0,68,0.00,,,0.00,weatherlink.com 1.10,2013-03-20 08:46:00,
2013-03-20 04:01:00,7.4,-1.0,30.23,WNW,293,3.0,9.0,68,0.00,,,0.00,weatherlink.com 1.10,2013-03-20 09:01:00,
2013-03-20 04:16:00,7.5,-1.0,30.24,NW,304,2.0,10.0,67,0.00,,,0.00,weatherlink.com 1.10,2013-03-20 09:16:00,
2013-03-20 04:31:00,7.4,-2.0,30.24,NW,315,6.0,9.0,67,0.00,,,0.00,weatherlink.com 1.10,2013-03-20 09:31:00,
2013-03-20 04:46:00,7.3,-2.0,30.24,West,272,7.0,10.0,67,0.00,,,0.00,weatherlink.com 1.10,2013-03-20 09:46:00,
2013-03-20 05:02:00,7.3,-2.0,30.24,West,259,3.0,9.0,67,0.00,,,0.00,weatherlink.com 1.10,2013-03-20 10:02:00,
2013-03-20 05:17:00,7.2,-1.0,30.24,WNW,298,4.0,10.0,68,0.00,,,0.00,weatherlink.com 1.10,2013-03-20 10:17:00,
2013-03-20 05:32:00,7.0,-2.0,30.25,NNE,12,1.0,11.0,68,0.00,,,0.00,weatherlink.com 1.10,2013-03-20 10:32:00,
2013-03-20 05:47:00,6.9,-1.0,30.25,NW,314,1.0,10.0,69,0.00,,,0.00,weatherlink.com 1.10,2013-03-20 10:47:00,
2013-03-20 06:02:00,6.7,-2.0,30.25,NW,306,2.0,10.0,69,0.00,,,0.00,weatherlink.com 1.10,2013-03-20 11:02:00,
2013-03-20 06:17:00,6.4,-2.0,30.26,West,276,2.0,13.0,69,0.00,,,0.00,weatherlink.com 1.10,2013-03-20 11:17:00,
2013-03-20 06:32:00,6.3,-2.0,30.26,NW,307,2.0,11.0,69,0.00,,,0.00,weatherlink.com 1.10,2013-03-20 11:32:00,
2013-03-20 06:47:00,6.2,-2.0,30.26,NW,305,3.0,8.0,69,0.00,,,0.00,weatherlink.com 1.10,2013-03-20 11:47:00,
2013-03-20 07:02:00,6.3,-2.0,30.26,NW,323,4.0,12.0,69,0.00,,,0.00,weatherlink.com 1.10,2013-03-20 12:02:00,
2013-03-20 07:17:00,6.4,-2.0,30.26,West,270,3.0,16.0,69,0.00,,,0.00,weatherlink.com 1.10,2013-03-20 12:17:00,
2013-03-20 07:32:00,6.5,-2.0,30.26,WNW,297,2.0,9.0,69,0.00,,,0.00,weatherlink.com 1.10,2013-03-20 12:32:00,
2013-03-20 07:47:00,6.7,-2.0,30.26,WNW,283,5.0,15.0,68,0.00,,,0.00,weatherlink.com 1.10,2013-03-20 12:47:00,
2013-03-20 08:02:00,7.1,-2.0,30.25,WSW,243,4.0,13.0,67,0.00,,,0.00,weatherlink.com 1.10,2013-03-20 13:02:00,
2013-03-20 08:18:00,7.4,-2.0,30.25,WNW,284,3.0,8.0,67,0.00,,,0.00,weatherlink.com 1.10,2013-03-20 13:18:00,
2013-03-20 08:33:00,7.2,-2.0,30.25,NNW,334,3.0,7.0,67,0.00,,,0.00,weatherlink.com 1.10,2013-03-20 13:33:00,
2013-03-20 08:48:00,7.5,-1.0,30.25,WSW,245,7.0,12.0,67,0.00,,,0.00,weatherlink.com 1.10,2013-03-20 13:48:00,
2013-03-20 09:03:00,8.1,-2.0,30.25,West,276,4.0,12.0,65,0.00,,,0.00,weatherlink.com 1.10,2013-03-20 14:03:00,
2013-03-20 09:18:00,9.1,-1.0,30.25,WNW,285,7.0,14.0,64,0.00,,,0.00,weatherlink.com 1.10,2013-03-20 14:18:00,
2013-03-20 09:33:00,10.1,0.0,30.24,West,264,4.0,10.0,63,0.00,,,0.00,weatherlink.com 1.10,2013-03-20 14:33:00,
2013-03-20 09:48:00,11.1,0.0,30.24,NW,305,5.0,10.0,61,0.00,,,0.00,weatherlink.com 1.10,2013-03-20 14:48:00,
2013-03-20 10:03:00,11.7,0.0,30.24,NNW,332,5.0,14.0,59,0.00,,,0.00,weatherlink.com 1.10,2013-03-20 15:03:00,
2013-03-20 10:18:00,12.1,1.0,30.24,SSW,200,2.0,13.0,60,0.00,,,0.00,weatherlink.com 1.10,2013-03-20 15:18:00,
2013-03-20 10:33:00,13.2,1.0,30.24,North,349,1.0,11.0,58,0.00,,,0.00,weatherlink.com 1.10,2013-03-20 15:33:00,
2013-03-20 10:48:00,14.4,1.0,30.23,NNW,347,6.0,11.0,56,0.00,,,0.00,weatherlink.com 1.10,2013-03-20 15:48:00,
2013-03-20 11:03:00,14.9,2.0,30.23,WSW,242,7.0,14.0,56,0.00,,,0.00,weatherlink.com 1.10,2013-03-20 16:03:00,
2013-03-20 11:18:00,15.8,2.0,30.23,NW,308,6.0,13.0,55,0.00,,,0.00,weatherlink.com 1.10,2013-03-20 16:18:00,
2013-03-20 11:34:00,16.5,3.0,30.22,WNW,298,4.0,13.0,55,0.00,,,0.00,weatherlink.com 1.10,2013-03-20 16:34:00,
2013-03-20 11:49:00,17.1,3.0,30.22,WSW,257,8.0,10.0,54,0.00,,,0.00,weatherlink.com 1.10,2013-03-20 16:49:00,
2013-03-20 12:04:00,17.6,3.0,30.22,NW,309,6.0,10.0,54,0.00,,,0.00,weatherlink.com 1.10,2013-03-20 17:04:00,
2013-03-20 12:19:00,17.8,4.0,30.21,West,271,4.0,11.0,54,0.00,,,0.00,weatherlink.com 1.10,2013-03-20 17:19:00,
2013-03-20 12:34:00,17.6,3.0,30.21,WNW,287,5.0,13.0,54,0.00,,,0.00,weatherlink.com 1.10,2013-03-20 17:34:00,
2013-03-20 12:49:00,18.6,4.0,30.20,WNW,302,7.0,14.0,53,0.00,,,0.00,weatherlink.com 1.10,2013-03-20 17:49:00,
2013-03-20 13:04:00,18.1,3.0,30.21,WNW,287,4.0,11.0,53,0.00,,,0.00,weatherlink.com 1.10,2013-03-20 18:04:00,
2013-03-20 13:19:00,18.8,4.0,30.20,WSW,256,5.0,14.0,53,0.00,,,0.00,weatherlink.com 1.10,2013-03-20 18:19:00,
2013-03-20 13:34:00,19.3,4.0,30.20,WSW,240,4.0,13.0,52,0.00,,,0.00,weatherlink.com 1.10,2013-03-20 18:34:00,
2013-03-20 13:49:00,19.4,4.0,30.19,West,274,1.0,15.0,52,0.00,,,0.00,weatherlink.com 1.10,2013-03-20 18:49:00,
2013-03-20 14:04:00,20.3,5.0,30.18,West,270,2.0,11.0,52,0.00,,,0.00,weatherlink.com 1.10,2013-03-20 19:04:00,
2013-03-20 14:19:00,20.6,5.0,30.18,WSW,238,6.0,14.0,51,0.00,,,0.00,weatherlink.com 1.10,2013-03-20 19:19:00,
2013-03-20 14:34:00,21.4,7.0,30.18,NW,321,2.0,11.0,53,0.00,,,0.00,weatherlink.com 1.10,2013-03-20 19:34:00,
2013-03-20 14:49:00,20.8,5.0,30.18,WNW,284,1.0,13.0,51,0.00,,,0.00,weatherlink.com 1.10,2013-03-20 19:49:00,
2013-03-20 15:05:00,21.2,5.0,30.17,West,280,3.0,14.0,50,0.00,,,0.00,weatherlink.com 1.10,2013-03-20 20:05:00,
2013-03-20 15:20:00,21.8,6.0,30.17,West,281,2.0,11.0,50,0.00,,,0.00,weatherlink.com 1.10,2013-03-20 20:20:00,
2013-03-20 15:35:00,21.7,5.0,30.17,WSW,255,1.0,11.0,49,0.00,,,0.00,weatherlink.com 1.10,2013-03-20 20:35:00,
2013-03-20 15:50:00,21.7,5.0,30.16,NW,308,12.0,13.0,49,0.00,,,0.00,weatherlink.com 1.10,2013-03-20 20:50:00,
2013-03-20 16:05:00,21.7,6.0,30.16,NW,326,5.0,9.0,51,0.00,,,0.00,weatherlink.com 1.10,2013-03-20 21:05:00,
2013-03-20 16:20:00,21.5,5.0,30.16,NW,321,3.0,10.0,49,0.00,,,0.00,weatherlink.com 1.10,2013-03-20 21:20:00,
2013-03-20 16:35:00,21.8,5.0,30.16,NW,304,4.0,11.0,49,0.00,,,0.00,weatherlink.com 1.10,2013-03-20 21:35:00,
2013-03-20 16:50:00,21.7,5.0,30.16,WNW,298,3.0,10.0,49,0.00,,,0.00,weatherlink.com 1.10,2013-03-20 21:50:00,
2013-03-20 17:05:00,21.9,6.0,30.16,West,274,3.0,9.0,50,0.00,,,0.00,weatherlink.com 1.10,2013-03-20 22:05:00,
2013-03-20 17:20:00,22.0,6.0,30.16,NNW,338,8.0,10.0,50,0.00,,,0.00,weatherlink.com 1.10,2013-03-20 22:20:00,
2013-03-20 17:35:00,22.4,6.0,30.16,WSW,249,0.0,9.0,49,0.00,,,0.00,weatherlink.com 1.10,2013-03-20 22:35:00,
2013-03-20 17:50:00,21.9,6.0,30.16,WSW,255,3.0,9.0,50,0.00,,,0.00,weatherlink.com 1.10,2013-03-20 22:50:00,
2013-03-20 18:05:00,21.9,6.0,30.17,NW,314,3.0,11.0,51,0.00,,,0.00,weatherlink.com 1.10,2013-03-20 23:05:00,
2013-03-20 18:21:00,21.3,5.0,30.16,WNW,285,3.0,10.0,50,0.00,,,0.00,weatherlink.com 1.10,2013-03-20 23:21:00,
2013-03-20 18:36:00,20.2,5.0,30.17,West,269,2.0,7.0,53,0.00,,,0.00,weatherlink.com 1.10,2013-03-20 23:36:00,
2013-03-20 19:21:00,18.8,5.0,30.17,WNW,288,2.0,7.0,55,0.00,,,0.00,weatherlink.com 1.10,2013-03-21 00:21:00,
2013-03-20 19:36:00,18.3,5.0,30.17,WNW,295,4.0,7.0,55,0.00,,,0.00,weatherlink.com 1.10,2013-03-21 00:36:00,
2013-03-20 19:51:00,18.1,5.0,30.18,NW,304,1.0,9.0,56,0.00,,,0.00,weatherlink.com 1.10,2013-03-21 00:51:00,
2013-03-20 20:06:00,17.7,5.0,30.17,WNW,290,2.0,9.0,57,0.00,,,0.00,weatherlink.com 1.10,2013-03-21 01:06:00,
2013-03-20 20:21:00,17.4,5.0,30.18,NW,304,0.0,6.0,58,0.00,,,0.00,weatherlink.com 1.10,2013-03-21 01:21:00,
2013-03-20 20:36:00,17.0,4.0,30.18,West,273,4.0,7.0,58,0.00,,,0.00,weatherlink.com 1.10,2013-03-21 01:36:00,
2013-03-20 20:51:00,16.7,5.0,30.18,NW,304,0.0,6.0,59,0.00,,,0.00,weatherlink.com 1.10,2013-03-21 01:51:00,
2013-03-20 21:21:00,16.0,4.0,30.18,NW,325,4.0,5.0,60,0.00,,,0.00,weatherlink.com 1.10,2013-03-21 02:21:00,
2013-03-20 21:37:00,15.9,4.0,30.17,NW,310,0.0,8.0,60,0.00,,,0.00,weatherlink.com 1.10,2013-03-21 02:37:00,
2013-03-20 21:52:00,15.6,4.0,30.18,West,259,0.0,6.0,61,0.00,,,0.00,weatherlink.com 1.10,2013-03-21 02:52:00,
2013-03-20 22:07:00,15.2,4.0,30.17,WNW,291,0.0,9.0,62,0.00,,,0.00,weatherlink.com 1.10,2013-03-21 03:07:00,
2013-03-20 22:22:00,14.8,4.0,30.18,WNW,287,2.0,6.0,62,0.00,,,0.00,weatherlink.com 1.10,2013-03-21 03:22:00,
2013-03-20 22:37:00,14.5,4.0,30.18,West,263,1.0,6.0,63,0.00,,,0.00,weatherlink.com 1.10,2013-03-21 03:37:00,
2013-03-20 22:52:00,14.0,4.0,30.18,WNW,293,0.0,5.0,64,0.00,,,0.00,weatherlink.com 1.10,2013-03-21 03:52:00,
2013-03-20 23:07:00,13.3,4.0,30.18,West,266,1.0,3.0,65,0.00,,,0.00,weatherlink.com 1.10,2013-03-21 04:07:00,
2013-03-20 23:22:00,12.6,3.0,30.18,West,269,0.0,3.0,66,0.00,,,0.00,weatherlink.com 1.10,2013-03-21 04:22:00,
2013-03-20 23:37:00,12.2,3.0,30.18,West,274,2.0,3.0,67,0.00,,,0.00,weatherlink.com 1.10,2013-03-21 04:37:00,
2013-03-20 23:52:00,11.7,3.0,30.18,WSW,245,2.0,4.0,68,0.00,,,0.00,weatherlink.com 1.10,2013-03-21 04:52:00,